SL-8 R/B, 12508

Orbit data source: Space-Track

SL-8 R/B, 12508 is space debris in LEO originally from a launch on Thu, 04 Jun 1981 UTC launched from the Plesetsk Missile And Space Complex (PKMTR). Debris objects in space refer to the collection of defunct objects orbiting the Earth. Examples of debris include non-operational satellites, rocket bodies, and fragments generated from explosions, collisions, or faulty payload assembly.

Loading next visibility...
Identifier
12508, 1981-053B
Orbit
LEO
Country
Flag of CISCIS
Related business
Manufacturer
Omsk Av. Zav.
Mission
Spacecraft
Bus & Motor
S3, Unknown motor
Mass
1,434 kg wet, 1,434 kg dry
Launch date (UTC)
1981-06-04 (45 years ago)
Launch vehicle
Unknown
Launch site
Plesetsk Missile And Space Complex (PKMTR)
Object type
Payload
Rocket body
Debris
Shape & HBR
Unknown
Radar Cross Section
Large (>1 m²)

Expand to show TLE details & history
Last TLE update: 13 hours ago

TLE from 13 hours ago
0 SL-8 R/B
1 12508U 81053B   26034.31439532  .00000079  00000-0  64474-4 0  9993
2 12508  82.9618 327.0007 0038219  28.3576 331.9650 13.76630465248995
Epoch: 2026-02-03T07:32Z
TLE epoch observation values (Epoch: 2026-02-03T07:32:43.755Z)
Latitude
-0.00003°
Longitude
80.32128°
Altitude
953.975 km
Speed
7.387 km/s
True Right ascension
21h 48m 00s
True Declination
0° 00' 00"
Sunlit
Object was in daylight at epoch
Visualization orbit readout
Latitude
Unknown
Longitude
Unknown
Altitude
Unknown
Speed
Unknown
Apparent Right ascension
Unknown
Apparent Declination
Unknown
Sunlit
N/A
Visualization observer readout
Local Sidereal Time
22:35:56
Azimuth
Unknown
Elevation
Unknown
Doppler factor
Unknown
Orbital elements
Apogee altitude
1,001.104 km
Perigee altitude
944.913 km
Semi-major axis
7,351.145 km
Eccentricity
0.00382
Inclination
82.9618°
RAAN
327.0007°
Arg. of periapsis
28.3576°
True anomaly
331.75828°
Mean anomaly
331.965°
Eccentric anomaly
331.86173°
Mean motion
3.44358 °/min
Orbital period
104.54 mins
BSTAR
0.000064474
Loading maneuver chart data...
Computing Atmospheric mass density...

Documentation

Showing up to 5 results
|